sat.trackr.live / text

‹ back to catalog

NANOFF B

NORAD 58755 · 2023-185S

PAYLOAD ACTIVE UNKNOWN

§ Identity

Operator
Country
GER
Launch date
2023-12-01
Launch site
AFWTR
Launch vehicle
Mass (kg)
RCS (m²)

External: N2YO · Heavens-Above · Gunter

§ Orbital elements

Epoch: 2026-09-21T21:47:22.352640Z

Period
95.19 min
Inclination
97.5170°
Eccentricity
0.0011524
Mean motion
15.12811038 rev/d
Perigee alt
519.7 km
Apogee alt
535.6 km
Semi-major
6,905.8 km
B*
1.1297e-4
RAAN
331.0043°
Arg perigee
338.7607°
Mean anomaly
21.3144°
Rev number
14,849

§ Raw data

NANOFF B1 58755U 23185S   26264.90789760  .00001921  00000+0  11297-3 0  99902 58755  97.5170 331.0043 0011524 338.7607  21.3144 15.12811038148493

JSON: /api/v1/satellites/58755 · /tle

For live sub-satellite position, see the globe view (requires WebGL).

§ Visibility from observer

Set your observer location to see the next 7 days of passes ≥ 10°. The values pass through the URL so the page stays shareable.

No JS? Fill the form by hand. The geolocation button needs JavaScript.

§ Radio — SatNOGS DB

ModeDescriptionDownlinkUplink
FMN CW/FM (F2A) Beacon 435.950 MHz
GMSK GMSK4k8 Telemetry 435.950 MHz
BPSK S-band telemetry 2.264 GHz
GMSK GMSK4k8 Telemetry (inactive) 435.950 MHz

4 transmitters · refreshed weekly from db.satnogs.org